weather.gov     
National Weather Service

Regional Weather Roundup
NWS Homepage
This page is being discontinued on March 12, 2014.
The same data is available at this site. Please update your bookmarks.
Thank you, and we apologize for the inconvenience.
Please send an email to SR-SRH.Webmaster@noaa.gov with any concerns.


Current Version
Previous Version:    01  02  03  04  05  06  07  08  09  10  11  12  13  14  15  16  17  18  19  20  21  22  23  24  25  26  27  28  29  30  
   31  32  33  34  35  36  37  38  39  40  41  42  43  44  45  46  47  48  49  50  51  52  53  54  55  56  57  58  
[Printable]
594
ASUS41 KCTP 181710
RWRCTP

REGIONAL WEATHER ROUNDUP
NATIONAL WEATHER SERVICE STATE COLLEGE PA
100 PM EDT THU SEP 18 2014

Note: "fair" indicates few or no clouds below 12,000 feet with no
significant weather and/or obstructions to visibility.

* = STATION THAT DOES NOT REPORT PRECIPITATION /E.G. RAIN...SNOW...ETC/
    THUNDER OR FOG.

PAZ002>004-007>009-013>016-020>023-029>032-181800-
WESTERN PENNSYLVANIA

CITY           SKY/WX    TMP DP  RH WIND       PRES   REMARKS
ERIE           MOSUNNY   63  52  67 N12       30.11R
MEADVILLE      PTSUNNY   63  47  55 VRB5      30.11R
FRANKLIN*      CLOUDY    63  46  55 N3        30.12S
NEW CASTLE     NOT AVBL
BEAVER COUNTY  MOSUNNY   50  48  93 N8        30.11S
BUTLER*        PTSUNNY   64  46  52 NW6       30.12S
PITTSBURGH INT MOSUNNY   66  46  48 VRB7      30.10R
PITTSBURGH     MOSUNNY   65  41  41 VRB5      30.09R
INDIANA*       MOSUNNY   66  45  45 NW6       30.13S
LATROBE        MOSUNNY   63  48  59 VRB6      30.10R
WASHINGTON CO* MOSUNNY   66  45  45 N6        30.11R
$$

PAZ004>006-010>012-017>019-024>028-033>037-041-042-045-046-049>053-181800-
CENTRAL PENNSYLVANIA

CITY           SKY/WX    TMP DP  RH WIND       PRES   REMARKS
BRADFORD       MOSUNNY   62  43  49 N9        30.09S
DUBOIS         PTSUNNY   61  46  57 N3        30.09R
CLEARFIELD     MOSUNNY   66  43  43 N9        30.08S
JOHNSTOWN      MOSUNNY   63  45  51 W5        30.09R
ALTOONA        PTSUNNY   67  49  52 N10       30.07S
STATE COLLEGE  PTSUNNY   64  48  55 NW5       30.07S
WILLIAMSPORT   MOSUNNY   69  44  40 VRB5      30.03F
SELINSGROVE    SUNNY     71  51  49 VRB3      30.04F
FT INDIANTOWN  NOT AVBL
CAPITAL CITY   SUNNY     73  43  33 NW9       30.03S
HARRISBURG     MOSUNNY   75  43  31 W6        30.02S
YORK           CLOUDY    73  48  41 N6        30.03S
$$

PAZ038>040-043-044-047-048-054-055-060>062-067>071-181800-
EASTERN PENNSYLVANIA

CITY           SKY/WX    TMP DP  RH WIND       PRES   REMARKS
SCRANTON       PTSUNNY   69  46  43 MISG      30.03F
MOUNT POCONO   PTSUNNY   65  45  48 VRB3      30.04S
ALLENTOWN      SUNNY     73  47  39 CALM      30.01F
QUAKERTOWN*    SUNNY     72  50  46 W3        30.02S
READING        SUNNY     73  46  38 N8        30.01F
LANCASTER      CLOUDY    71  49  45 VRB7      30.02S
COATESVILLE    CLOUDY    64  54  68 W5        30.04R
POTTSTOWN      SUNNY     68  53  58 S3        30.03S
BLUE BELL      MOSUNNY   72  54  53 CALM      30.01R
DOYLESTOWN     MOSUNNY   69  49  48 CALM      30.00F
WILLOW GROVE   NOT AVBL
NORTH PHILA    MOSUNNY   76  47  35 VRB6      30.02S
PHILADELPHIA   PTSUNNY   72  52  49 W7        30.01S
$$




U.S. Dept. of Commerce
NOAA National Weather Service
1325 East West Highway
Silver Spring, MD 20910
E-mail: w-nws.webmaster@noaa.gov
Page last modified: May 16, 2007
NATIONAL WEATHER SERVICE: for Safety, for Work, for Fun - FOR LIFE